• In United Kingdom
  • List of Countries
  • For 7 days
  • Water Temperature
  • Satellite Maps
  • Weather Map
  • Weather Widgets
  • user-avatar
    Login

    Hourly Weather Pinsa

    Today, 24 September, Monday

    Time Temperature Precipitation Wind Pressure Humidity
    00:00 +35°C° 0 mm 3 mps 734 mmHg 43%
    01:00 +34°C° 0 mm 4 mps 733 mmHg 46%
    02:00 +34°C° 0 mm 4 mps 733 mmHg 49%
    03:00 +33°C° 0 mm 4 mps 733 mmHg 51%
    04:00 +33°C° 0 mm 4 mps 733 mmHg 54%
    05:00 +32°C° 0 mm 4 mps 733 mmHg 56%
    06:00 +32°C° 0 mm 4 mps 733 mmHg 58%
    07:00 +33°C° 0 mm 4 mps 734 mmHg 55%
    08:00 +34°C° 0 mm 4 mps 734 mmHg 52%
    09:00 +35°C° 0 mm 4 mps 734 mmHg 49%
    10:00 +36°C° 0 mm 3 mps 734 mmHg 45%
    11:00 +38°C° 0 mm 2 mps 734 mmHg 40%
    12:00 +39°C° 0 mm 1 mps 734 mmHg 36%
    13:00 +39°C° 0 mm 1 mps 733 mmHg 34%
    14:00 +40°C° 0 mm 1 mps 733 mmHg 31%
    15:00 +37°C° 0 mm 0 mps 732 mmHg 29%
    16:00 +40°C° 0 mm 1 mps 732 mmHg 30%
    17:00 +40°C° 0 mm 2 mps 732 mmHg 31%
    18:00 +39°C° 0 mm 2 mps 732 mmHg 32%
    19:00 +39°C° 0.1 mm 3 mps 732 mmHg 35%
    20:00 +38°C° 0.1 mm 4 mps 732 mmHg 38%
    21:00 +37°C° 0.1 mm 4 mps 733 mmHg 40%
    22:00 +36°C° 0.9 mm 5 mps 733 mmHg 48%
    23:00 +34°C° 0.9 mm 6 mps 733 mmHg 55%

    Tomorrow, 25 September, Tuesday

    Time Temperature Precipitation Wind Pressure Humidity
    00:00 +32°C° 0.9 mm 7 mps 733 mmHg 63%
    01:00 +32°C° 0 mm 6 mps 733 mmHg 62%
    02:00 +32°C° 0 mm 5 mps 733 mmHg 60%
    03:00 +32°C° 0 mm 4 mps 733 mmHg 59%
    04:00 +32°C° 0.1 mm 5 mps 733 mmHg 59%
    05:00 +32°C° 0.1 mm 5 mps 733 mmHg 58%
    06:00 +32°C° 0.1 mm 5 mps 733 mmHg 58%
    07:00 +33°C° 0 mm 5 mps 733 mmHg 55%
    08:00 +34°C° 0 mm 5 mps 734 mmHg 53%
    09:00 +34°C° 0 mm 5 mps 734 mmHg 50%
    10:00 +36°C° 0 mm 5 mps 734 mmHg 44%
    11:00 +39°C° 0 mm 5 mps 734 mmHg 38%
    12:00 +41°C° 0 mm 4 mps 733 mmHg 33%
    13:00 +40°C° 0 mm 3 mps 732 mmHg 30%
    14:00 +42°C° 0 mm 3 mps 732 mmHg 27%
    15:00 +42°C° 0 mm 2 mps 731 mmHg 24%
    16:00 +41°C° 0 mm 2 mps 731 mmHg 25%
    17:00 +41°C° 0 mm 2 mps 731 mmHg 25%
    18:00 +40°C° 0 mm 2 mps 731 mmHg 26%
    19:00 +39°C° 0 mm 3 mps 732 mmHg 30%
    20:00 +38°C° 0 mm 4 mps 732 mmHg 33%
    21:00 +37°C° 0 mm 5 mps 733 mmHg 37%
    22:00 +37°C° 0.2 mm 5 mps 733 mmHg 40%
    23:00 +36°C° 0.2 mm 5 mps 733 mmHg 44%

    Day after tomorrow, 26 September, Wednesday

    Time Temperature Precipitation Wind Pressure Humidity
    00:00 +35°C° 0.2 mm 5 mps 732 mmHg 47%
    01:00 +34°C° 0 mm 5 mps 732 mmHg 49%
    02:00 +34°C° 0 mm 4 mps 732 mmHg 51%
    03:00 +33°C° 0 mm 3 mps 731 mmHg 53%
    04:00 +33°C° 0 mm 4 mps 732 mmHg 55%
    05:00 +32°C° 0 mm 4 mps 732 mmHg 58%
    06:00 +32°C° 0 mm 5 mps 732 mmHg 61%
    07:00 +33°C° 0 mm 5 mps 733 mmHg 57%
    08:00 +34°C° 0 mm 5 mps 733 mmHg 52%
    09:00 +35°C° 0 mm 6 mps 734 mmHg 48%
    10:00 +37°C° 0 mm 5 mps 734 mmHg 43%
    11:00 +38°C° 0 mm 4 mps 733 mmHg 39%
    12:00 +41°C° 0 mm 4 mps 733 mmHg 34%
    13:00 +40°C° 0 mm 3 mps 732 mmHg 31%
    14:00 +41°C° 0 mm 2 mps 731 mmHg 28%
    15:00 +42°C° 0 mm 2 mps 731 mmHg 25%
    16:00 +41°C° 0 mm 2 mps 731 mmHg 26%
    17:00 +42°C° 0 mm 3 mps 731 mmHg 27%
    18:00 +40°C° 0 mm 3 mps 731 mmHg 28%
    19:00 +40°C° 0 mm 4 mps 731 mmHg 31%
    20:00 +38°C° 0 mm 4 mps 732 mmHg 35%
    21:00 +38°C° 0 mm 4 mps 732 mmHg 38%
    22:00 +37°C° 0 mm 5 mps 732 mmHg 42%
    23:00 +36°C° 0 mm 5 mps 732 mmHg 45%

    27 September, Thursday

    Time Temperature Precipitation Wind Pressure Humidity
    00:00 +35°C° 0 mm 5 mps 732 mmHg 49%
    01:00 +34°C° 0.2 mm 5 mps 732 mmHg 51%
    02:00 +34°C° 0.2 mm 5 mps 732 mmHg 54%
    03:00 +33°C° 0.2 mm 6 mps 731 mmHg 57%
    04:00 +33°C° 0 mm 5 mps 732 mmHg 59%
    05:00 +32°C° 0 mm 5 mps 732 mmHg 60%
    06:00 +32°C° 0 mm 5 mps 732 mmHg 62%
    07:00 +33°C° 0 mm 5 mps 733 mmHg 58%
    08:00 +34°C° 0 mm 5 mps 733 mmHg 53%
    09:00 +35°C° 0 mm 5 mps 734 mmHg 49%
    10:00 +37°C° 0 mm 5 mps 733 mmHg 44%
    11:00 +39°C° 0 mm 5 mps 733 mmHg 39%
    12:00 +41°C° 0 mm 5 mps 733 mmHg 34%
    13:00 +41°C° 0 mm 4 mps 732 mmHg 32%
    14:00 +42°C° 0 mm 4 mps 731 mmHg 30%
    15:00 +42°C° 0 mm 3 mps 731 mmHg 28%
    16:00 +40°C° 0 mm 3 mps 731 mmHg 29%
    17:00 +40°C° 0 mm 3 mps 731 mmHg 30%
    18:00 +39°C° 0 mm 3 mps 731 mmHg 31%
    19:00 +40°C° 0 mm 4 mps 731 mmHg 34%
    20:00 +39°C° 0 mm 5 mps 732 mmHg 37%
    21:00 +38°C° 0 mm 6 mps 732 mmHg 40%
    22:00 +36°C° 0 mm 6 mps 732 mmHg 43%
    23:00 +36°C° 0 mm 6 mps 732 mmHg 47%

    28 September, Friday

    Time Temperature Precipitation Wind Pressure Humidity
    00:00 +35°C° 0 mm 6 mps 732 mmHg 50%
    01:00 +33°C° 13 mm 5 mps 732 mmHg 59%
    02:00 +31°C° 13 mm 3 mps 731 mmHg 67%
    03:00 +29°C° 13 mm 2 mps 731 mmHg 76%
    04:00 +29°C° 3.9 mm 2 mps 732 mmHg 74%
    05:00 +29°C° 3.9 mm 2 mps 733 mmHg 71%
    06:00 +29°C° 3.9 mm 2 mps 734 mmHg 69%
    07:00 +29°C° 0.2 mm 2 mps 734 mmHg 66%
    08:00 +29°C° 0.2 mm 2 mps 735 mmHg 63%
    09:00 +30°C° 0.2 mm 2 mps 735 mmHg 59%
    10:00 +31°C° 0 mm 1 mps 734 mmHg 54%
    11:00 +33°C° 0 mm 1 mps 734 mmHg 48%
    12:00 +34°C° 0 mm 1 mps 733 mmHg 42%
    13:00 +36°C° 0 mm 2 mps 732 mmHg 40%
    14:00 +37°C° 0 mm 3 mps 732 mmHg 37%
    15:00 +37°C° 0 mm 3 mps 731 mmHg 35%
    16:00 +37°C° 0 mm 3 mps 731 mmHg 37%
    17:00 +36°C° 0 mm 2 mps 731 mmHg 39%
    18:00 +35°C° 0 mm 2 mps 731 mmHg 41%
    19:00 +35°C° 0 mm 2 mps 732 mmHg 43%
    20:00 +33°C° 0 mm 1 mps 732 mmHg 45%
    21:00 +31°C° 0 mm 0 mps 733 mmHg 48%
    22:00 +33°C° 0 mm 1 mps 732 mmHg 47%
    23:00 +32°C° 0 mm 2 mps 732 mmHg 46%

    29 September, Saturday

    Time Temperature Precipitation Wind Pressure Humidity
    00:00 +33°C° 0 mm 3 mps 732 mmHg 45%
    01:00 +31°C° 0 mm 3 mps 732 mmHg 47%
    02:00 +31°C° 0 mm 3 mps 732 mmHg 50%
    03:00 +30°C° 0 mm 3 mps 732 mmHg 52%
    04:00 +30°C° 0 mm 3 mps 732 mmHg 54%
    05:00 +30°C° 0 mm 3 mps 733 mmHg 56%
    06:00 +29°C° 0 mm 3 mps 733 mmHg 59%
    07:00 +30°C° 0 mm 4 mps 733 mmHg 57%
    08:00 +32°C° 0 mm 4 mps 734 mmHg 55%
    09:00 +34°C° 0 mm 5 mps 734 mmHg 52%
    10:00 +35°C° 0 mm 4 mps 734 mmHg 48%
    11:00 +36°C° 0 mm 4 mps 733 mmHg 43%
    12:00 +37°C° 0 mm 3 mps 733 mmHg 38%
    13:00 +38°C° 0 mm 2 mps 732 mmHg 35%
    14:00 +39°C° 0 mm 2 mps 732 mmHg 33%
    15:00 +39°C° 0 mm 2 mps 731 mmHg 30%
    16:00 +39°C° 0 mm 2 mps 731 mmHg 31%
    17:00 +38°C° 0 mm 2 mps 731 mmHg 32%
    18:00 +38°C° 0 mm 2 mps 731 mmHg 33%
    19:00 +37°C° 0 mm 3 mps 731 mmHg 34%
    20:00 +37°C° 0 mm 4 mps 732 mmHg 36%
    21:00 +36°C° 0 mm 5 mps 733 mmHg 38%
    22:00 +35°C° 0 mm 5 mps 732 mmHg 42%
    23:00 +33°C° 0 mm 6 mps 732 mmHg 46%
    Show more

    3.3.7123123